DL1SEW-6 Weather Reports


time (UTC)temp
C
wind
direction
speed
KPH
gust
KPH
rain 1hr
cm
rain 24hr
cm
rain mn
cm
humidity
%
barometer
mb
20260502122453 24 313 0.0 0.0 0.00 0.00 0.00 26 1020.2
20260502120953 24 311 0.0 0.0 0.00 0.00 0.00 25 1020.3
20260502115455 25 345 0.0 0.0 0.00 0.00 0.00 24 1020.6
20260502113959 25 290 0.0 1.6 0.00 0.00 0.00 26 1020.8
20260502112457 25 211 0.0 3.2 0.00 0.00 0.00 29 1021.3
20260502110957 24 275 0.0 0.0 0.00 0.00 0.00 26 1021.5
20260502105457 24 12 0.0 0.0 0.00 0.00 0.00 27 1021.6
20260502103958 23 144 0.0 0.0 0.00 0.00 0.00 27 1022.0
20260502102457 23 278 0.0 0.0 0.00 0.00 0.00 28 1022.1
20260502100958 23 241 0.0 0.0 0.00 0.00 0.00 28 1022.3
20260502090956 22 175 0.0 0.0 0.00 0.00 0.00 34 1022.6
20260502070954 14 168 0.0 0.0 0.00 0.00 0.00 57 1022.2
20260502065454 13 168 0.0 0.0 0.00 0.00 0.00 55 1022.1
20260502063954 13 168 0.0 0.0 0.00 0.00 0.00 57 1022.1
20260502062455 12 168 0.0 0.0 0.00 0.00 0.00 59 1022.0
20260502060954 11 168 0.0 0.0 0.00 0.00 0.00 59 1021.9
20260502055454 10 168 0.0 0.0 0.00 0.00 0.00 62 1021.7
20260502053959 8 168 0.0 0.0 0.00 0.00 0.00 67 1021.6
20260502052459 7 168 0.0 0.0 0.00 0.00 0.00 70 1021.4
20260502050958 6 168 0.0 0.0 0.00 0.00 0.00 74 1021.1
20260502045500 5 168 0.0 0.0 0.00 0.00 0.00 76 1021.0
20260502044000 4 168 0.0 0.0 0.00 0.00 0.00 74 1021.1
20260502042458 4 168 0.0 0.0 0.00 0.00 0.00 74 1021.1
20260502040957 5 168 0.0 0.0 0.00 0.00 0.00 72 1021.0
20260502035457 5 168 0.0 0.0 0.00 0.00 0.00 70 1021.2
20260502033957 5 168 0.0 0.0 0.00 0.00 0.00 69 1021.1
20260502032457 6 168 0.0 0.0 0.00 0.00 0.00 69 1021.2
20260502030957 6 168 0.0 0.0 0.00 0.00 0.00 67 1021.4
20260502025457 6 168 0.0 0.0 0.00 0.00 0.00 67 1021.6
20260502023958 7 168 0.0 0.0 0.00 0.00 0.00 64 1021.6
20260502022458 7 168 0.0 0.0 0.00 0.00 0.00 64 1021.5
20260502020956 7 168 0.0 0.0 0.00 0.00 0.00 64 1021.5
20260502015456 7 168 0.0 0.0 0.00 0.00 0.00 62 1021.9
20260502013956 8 168 0.0 0.0 0.00 0.00 0.00 61 1022.1
20260502012458 9 168 0.0 0.0 0.00 0.00 0.00 58 1022.3
20260502010955 10 168 0.0 0.0 0.00 0.00 0.00 56 1022.5
20260502005457 10 168 0.0 0.0 0.00 0.00 0.00 54 1022.6
20260502003955 11 140 0.0 0.0 0.00 0.00 0.00 51 1022.6
20260502002456 11 173 0.0 0.0 0.00 0.00 0.00 51 1022.6
20260502000955 11 336 0.0 0.0 0.00 0.00 0.00 50 1022.6
20260501235456 12 26 0.0 0.0 0.00 0.00 0.00 50 1023.0
20260501233954 12 26 0.0 0.0 0.00 0.00 0.00 48 1023.1
20260501232459 12 26 0.0 0.0 0.00 0.00 0.00 47 1023.1
20260501231000 13 26 0.0 0.0 0.00 0.00 0.00 46 1023.2
20260501225502 13 26 1.6 4.8 0.00 0.00 0.00 46 1023.2
20260501223959 14 44 3.2 8.0 0.00 0.00 0.00 44 1023.3
20260501222459 14 41 3.2 9.7 0.00 0.00 0.00 42 1023.4
20260501220958 14 166 3.2 12.9 0.00 0.00 0.00 43 1023.3
20260501215458 14 163 1.6 8.0 0.00 0.00 0.00 43 1023.9
20260501214000 14 222 0.0 3.2 0.00 0.00 0.00 42 1023.7
20260501212500 15 213 0.0 9.7 0.00 0.00 0.00 42 1023.8
20260501210958 15 140 0.0 1.6 0.00 0.00 0.00 40 1023.9
20260501205457 15 111 1.6 14.5 0.00 0.00 0.00 40 1023.8
20260501203958 15 19 0.0 1.6 0.00 0.00 0.00 40 1023.8
20260501202457 15 19 0.0 3.2 0.00 0.00 0.00 41 1023.6
20260501200959 15 19 0.0 3.2 0.00 0.00 0.00 39 1023.6
20260501195458 15 17 0.0 0.0 0.00 0.00 0.00 39 1023.4
20260501193957 15 18 0.0 3.2 0.00 0.00 0.00 38 1023.3
20260501192456 16 18 0.0 3.2 0.00 0.00 0.00 39 1023.1
20260501190958 17 18 0.0 1.6 0.00 0.00 0.00 36 1023.0
20260501185456 17 17 0.0 3.2 0.00 0.00 0.00 33 1022.9
20260501183956 18 18 0.0 3.2 0.00 0.00 0.00 33 1022.9
20260501182457 19 17 0.0 3.2 0.00 0.00 0.00 30 1022.9
20260501180957 20 17 0.0 3.2 0.00 0.00 0.00 30 1022.7
20260501175455 20 21 0.0 4.8 0.00 0.00 0.00 29 1022.6
20260501173955 20 30 0.0 3.2 0.00 0.00 0.00 28 1022.3
20260501172500 20 37 4.8 9.7 0.00 0.00 0.00 27 1022.3
20260501171000 21 29 0.0 3.2 0.00 0.00 0.00 27 1022.3
20260501165500 21 17 1.6 9.7 0.00 0.00 0.00 26 1022.3
20260501164001 21 17 4.8 8.0 0.00 0.00 0.00 25 1022.5
20260501162459 22 65 1.6 8.0 0.00 0.00 0.00 25 1022.7
20260501160959 22 22 3.2 11.3 0.00 0.00 0.00 24 1022.7
20260501155459 22 15 3.2 8.0 0.00 0.00 0.00 24 1022.9
20260501153959 22 142 3.2 12.9 0.00 0.00 0.00 24 1023.0
20260501152501 22 183 1.6 8.0 0.00 0.00 0.00 26 1023.3
20260501150959 22 41 6.4 14.5 0.00 0.00 0.00 23 1023.3